Regional Weather Roundup
Issued by NWS Cleveland, OH

Home | Current Version | Previous Version | Graphics & Text | Print | Product List | Glossary On
Versions: 1 2 3 4 5 6 7 8 9 10 11 12 13 14 15 16 17 18 19 20 21 22 23 24 25 26 27 28 29 30 31 32 33 34 35 36 37 38 39 40 41 42 43 44 45 46 47 48 49 50
202
ASUS41 KCLE 041410
RWRCLE
OHIO REGIONAL WEATHER ROUNDUP
NATIONAL WEATHER SERVICE CLEVELAND, OH
1000 AM EDT WED MAY 04 2016

NOTE: "FAIR" INDICATES FEW OR NO CLOUDS BELOW 12,000 FEET WITH NO
SIGNIFICANT WEATHER AND/OR OBSTRUCTIONS TO VISIBILITY.

OHZ001>008-015>018-024>027-034-035-043-044-041500-
   NORTHWEST OHIO

CITY           SKY/WX    TMP DP  RH WIND       PRES   REMARKS
DEFIANCE       CLOUDY    56  45  66 S13       29.60F
FINDLAY        PTSUNNY   57  45  64 SW10      29.62F
TOLEDO EXPRESS CLOUDY    56  46  69 S8        29.60F
TOLEDO EXEC    CLOUDY    55  47  74 S9        29.62F
LIMA           CLOUDY    56  47  71 SW12      29.63S
$$

OHZ009>014-019>023-028>033-038-089-041500-
   NORTHEAST OHIO

CITY           SKY/WX    TMP DP  RH WIND       PRES   REMARKS
CLE-HOPKINS    PTSUNNY   58  43  57 S12       29.69F
CLE-LAKEFRONT  SUNNY     59  44  57 S10       29.66F
CUY CO. ARPT   NOT AVBL
LORAIN-ELYRIA  CLOUDY    56  44  64 S10       29.66F
ASHTABULA      SUNNY     56  42  59 S8        29.70F
AKRON-CANTON   PTSUNNY   56  45  66 SW8       29.69F
WOOSTER        MOSUNNY   56  46  69 S9        29.68F
MANSFIELD      MOSUNNY   56  44  64 S9        29.66F
YOUNGSTOWN     PTSUNNY   57  41  55 S6        29.69F
$$

OHZ042-051>053-060>062-070>072-077>081-041500-
  SOUTHWEST OHIO

CITY           SKY/WX    TMP DP  RH WIND       PRES   REMARKS
CINC-COVINGTON CLOUDY    55  45  68 W12       29.71
CINC-LUNKEN    PTSUNNY   60  48  64 SW10G20   29.70F
HAMILTON       CLOUDY    57  46  66 SW10G20   29.70S
DAYTON         PTSUNNY   57  45  64 SW20G25   29.67S
WRIGHT-PAT AFB MOSUNNY   59  47  66 SW16      29.66F
DAYTON GENERAL SUNNY     58  44  60 SW14G20   29.67F
WILMINGTON     PTSUNNY   55  46  71 SW10      29.68F
$$

OHZ036-037-039>041-045>050-054>059-063>069-073>076-082>088-041500-
  CENTRAL AND SOUTHEAST OHIO

CITY           SKY/WX    TMP DP  RH WIND       PRES   REMARKS
COLUMBUS       MOSUNNY   55  48  77 S7        29.68F
OSU AIRPORT    MOSUNNY   58  48  69 S8        29.67F
BOLTON FIELD   MOSUNNY   55  48  76 SW8       29.69F
RICKENBACK AFB SUNNY     56  49  76 S10       29.69F
NEWARK         MOSUNNY   59  47  64 SW8       29.68F
MARION         CLOUDY    53  47  79 S10       29.66F
LANCASTER      SUNNY     58  47  66 SW10      29.69F
ZANESVILLE     MOSUNNY   59  47  64 W7        29.70F
NEW PHILLY     MOSUNNY   57  46  66 S6        29.70F
$$




USA.gov is the U.S. government's official web portal to all federal, state and local government web resources and services.